Location: Bordes
(43.2333°N, 0.2833°W)
Time: 20:26:32
(UTC+00:00)

Daily predictions for brighter satellites

Satellite Brightness Start Highest point End
(mag) Time Altitude Azimuth Time Altitude Azimuth Time Altitude Azimuth
NOAA 11 4.3 16:48:11 10° SSE 16:53:37 84° WSW 16:59:04 10° NNW
Cosmos 2034 Rocket 4.5 16:48:27 10° SSE 16:54:03 38° E 16:59:40 10° NNE
Okean 3 Rocket 3.6 16:49:50 10° N 16:54:21 69° E 16:58:48 10° SSE
CORIOLIS 4.5 16:54:05 10° SE 16:59:08 44° ENE 17:04:15 10° N
USA 306 3.8 16:55:17 10° W 16:59:19 40° NNW 17:03:21 10° NE
NOSS 2-1 (C) 3.9 16:56:34 10° WSW 16:59:43 41° NW 17:02:51 10° NNE
CZ-2D R/B 4.5 16:57:45 10° ESE 17:00:44 22° ENE 17:03:42 10° NNE
Spot 1 4.4 16:58:39 10° NNE 17:03:15 83° WNW 17:08:07 10° SSW
USA 234 3.3 16:56:52 10° SE 17:03:25 87° NE 17:09:59 10° NW
Aureole 3 4.4 16:58:57 10° S 17:04:15 86° E 17:10:58 10° N
NOSS 3-1 (C) 4.2 16:57:20 10° NNW 17:04:34 53° NE 17:13:01 10° ESE
Cosmos 1842 Rocket 3.8 17:01:29 10° SSE 17:05:45 48° E 17:10:04 10° NNE
SL-08 R/B 3.8 17:02:02 10° N 17:06:44 62° WNW 17:11:20 10° SSW
Iridium 2 3.6 17:03:03 10° N 17:06:50 88° ENE 17:10:34 10° S
Cosmos 1833 Rocket 3.8 17:02:36 10° SSE 17:06:55 23° ESE 17:11:15 10° NE
NOSS 2-1 (D) 4.2 17:06:03 10° WSW 17:09:04 33° NW 17:12:05 10° NNE
Meteor 2-2 Rocket 4.4 17:03:09 10° S 17:09:10 79° E 17:15:12 10° NNE
Cosmos 1777 Rocket 4.3 17:04:42 10° NNW 17:09:59 75° WSW 17:15:15 10° SSE
PSLV R/B 4.3 17:09:16 10° SE 17:12:34 32° ENE 17:15:54 10° N
CZ-4B R/B 4.0 17:08:34 10° ESE 17:13:07 28° ENE 17:17:38 10° N
Meteor PRIRODA 4.1 17:09:55 10° S 17:13:33 66° W 17:17:11 10° NNW
USA 307 4.0 17:11:51 10° W 17:15:50 36° NNW 17:19:49 10° NE
Cosmos 1939 Rocket 2.9 17:11:58 10° SSE 17:16:05 72° ENE 17:20:11 10° N
ERBS 2.9 17:13:14 10° WSW 17:16:21 48° NW 17:19:27 10° NE
SMAP 3.0 17:12:15 10° SSE 17:16:52 69° ENE 17:21:30 10° N
Sich 1 4.4 17:14:05 10° NNE 17:16:54 17° ENE 17:19:43 10° ESE
ARGOS 4.1 17:13:10 10° ESE 17:17:26 24° ENE 17:21:42 10° NNE
Cosmos 1606 2.7 17:14:24 10° S 17:18:09 84° W 17:21:56 10° N
Cosmos 1862 4.1 17:14:32 10° NNW 17:18:26 56° W 17:22:20 10° S
H-2A R/B 2.5 17:14:06 10° SE 17:18:54 38° ENE 17:23:36 10° N
Cosmos 1766 Rocket 4.4 17:15:00 10° NNW 17:19:15 56° W 17:23:30 10° S
Cosmos 1898 Rocket 4.3 17:15:51 10° N 17:20:22 28° ENE 17:24:50 10° ESE
MOS 1-B Rocket 4.5 17:17:15 10° NNE 17:22:40 39° E 17:28:41 10° SSE
COSMOS 2455 4.3 17:19:22 10° SE 17:23:11 18° ESE 17:25:53 13° ENE
ATLAS CENTAUR R/B 3.3 17:20:49 10° W 17:24:17 25° NW 17:28:00 10° NNE
FengYun 1-2 T 4.4 17:19:35 10° SSE 17:25:12 83° WSW 17:30:49 10° NNW
Cosmos 2221 2.5 17:21:07 10° S 17:25:22 88° W 17:29:41 10° N
Cosmos 44 3.3 17:23:55 10° NNW 17:28:37 51° NE 17:33:01 10° SE
COSMO-SKYMED 1 3.4 17:29:31 10° NNE 17:33:23 30° E 17:37:14 10° SSE
Cosmos 540 Rocket 4.4 17:29:51 10° SSE 17:34:04 27° E 17:37:03 16° NE
Cosmos 2026 Rocket 4.3 17:29:43 10° N 17:35:29 39° ENE 17:41:08 10° SE
deb Chang Zheng 4 4.1 17:31:47 10° SE 17:35:38 34° ENE 17:39:33 10° N
USA 308 4.3 17:34:29 10° W 17:38:13 29° NNW 17:41:12 14° NE
CZ-2C R/B 3.0 17:34:49 10° NNE 17:39:42 39° E 17:44:30 10° SSE
Okean O Rocket 2.3 17:35:59 10° SE 17:39:55 32° ENE 17:43:52 10° N
ISS -1.9 17:41:14 10° NW 17:43:47 19° N 17:44:55 17° NNE
Meteor 1-25 Rocket 4.2 17:39:09 10° N 17:44:38 57° ENE 17:50:07 10° SSE
CZ-4C R/B 3.9 17:40:46 10° NNW 17:46:25 26° NNE 17:49:48 19° ENE
MOS 1-B 4.3 17:45:58 10° SSE 17:51:44 78° ENE 17:57:31 10° NNW
Cosmos 2084 3.9 17:54:04 10° NNW 17:58:09 40° NE 17:59:42 29° E
Cosmos 2369 4.3 17:54:25 10° N 17:59:40 35° NE 18:02:24 23° ESE
Cosmos 1782 3.0 17:57:01 10° SSE 18:00:51 46° E 18:02:36 28° NE
GEOS 3 Rocket 3.8 17:56:54 15° ESE 18:01:01 50° NE 18:06:02 10° NNW
Cosmos 1743 Rocket 3.6 17:58:13 10° N 18:02:33 79° W 18:06:52 10° S
Cosmos 1763 Rocket 3.4 18:01:45 10° SSW 18:06:49 87° WNW 18:11:17 14° NNE
Cosmos 1697 Rocket 2.7 18:02:28 10° NNW 18:08:01 58° ENE 18:13:33 10° SE
Cosmos 1937 Rocket 3.6 18:03:15 10° N 18:08:26 51° ENE 18:13:35 10° SE
Cosmos 841 Rocket 3.8 18:03:40 10° S 18:08:31 42° ESE 18:10:09 32° ENE
Lacrosse 5 4.4 18:05:11 10° WNW 18:09:06 22° WSW 18:13:00 10° S
Cosmos 1980 Rocket 2.8 18:04:47 10° N 18:09:53 33° NE 18:10:40 32° ENE
Cosmos 1812 4.1 18:09:04 10° SSE 18:10:59 24° SE 18:10:59 24° SE
USA 267 4.4 18:08:54 17° NE 18:13:08 33° NNW 18:18:47 10° WNW
Cosmos 1340 Rocket 3.9 18:09:39 10° NNW 18:13:34 47° W 18:17:28 10° SSW
SL-16 R/B 4.3 18:11:12 10° NNE 18:11:40 11° NNE 18:11:40 11° NNE
Cosmos 1656 4.1 18:08:24 10° NNW 18:13:53 65° WSW 18:19:24 10° S
Meteor 2-14 Rocket 4.3 18:08:54 10° N 18:15:02 73° E 18:21:05 10° SSE
Cosmos 2082 Rocket 2.6 18:12:11 10° S 18:17:28 41° ESE 18:18:33 37° E
USA 276 3.1 18:17:42 10° NW 18:19:58 37° NNW 18:19:58 37° NNW
SKYMED 2 3.6 18:17:49 14° N 18:21:34 81° WNW 18:25:54 10° SSW
Lacrosse 5 rocket 3.6 18:19:51 10° NNW 18:20:53 12° N 18:20:53 12° N
Cosmos 1151 Rocket 3.7 18:17:52 10° SSE 18:20:53 36° SE 18:20:53 36° SE
COSMOS 2406 3.1 18:17:08 10° SSW 18:22:52 76° ESE 18:26:02 28° NNE
Cosmos 1933 3.9 18:19:26 10° SSW 18:23:26 58° W 18:27:10 12° N
Cosmos 1602 3.9 18:19:39 10° NNW 18:23:29 71° W 18:27:19 10° S
Cosmos 990 Rocket 4.4 18:18:35 10° NNW 18:23:44 64° WSW 18:28:50 10° S
Cosmos 1092 Rocket 4.2 18:17:31 10° NNW 18:23:52 74° W 18:30:10 10° S
Cosmos 1809 Rocket 4.5 18:18:26 10° N 18:24:33 81° W 18:30:37 10° S
USA 229 DEB 3.8 18:21:50 10° NW 18:29:15 84° NE 18:37:07 10° SE
USA 229 3.8 18:21:56 10° NW 18:29:21 83° NE 18:37:12 10° SE
Feng Yun 1-1 Rocket 4.3 18:23:53 10° SSE 18:29:44 66° ENE 18:35:36 10° N
Meteor 2-21 Rocket 4.3 18:25:11 10° N 18:31:19 73° E 18:37:22 10° SSE
Cosmos 372 Rocket 4.0 18:30:14 10° NNW 18:35:15 55° ENE 18:35:15 55° ENE
Cosmos 2142 Rocket 4.3 18:30:11 10° S 18:36:17 76° E 18:42:28 10° N
Meteor 2-8 Rocket 4.5 18:31:23 10° SSE 18:37:19 53° E 18:38:41 44° NE
Meteor 1-26 Rocket 4.4 18:32:08 10° SSW 18:38:01 77° W 18:44:05 10° N
Cosmos 858 Rocket 4.4 18:32:43 10° NNW 18:38:02 83° ENE 18:42:22 16° SSE
Cosmos 1833 Rocket 3.3 18:44:58 10° SW 18:50:26 52° WNW 18:53:35 25° N
NOSS 3-1 (A) 4.3 18:45:02 10° NW 18:52:42 71° WSW 19:01:32 10° SSE
CZ-4B R/B 4.4 18:48:18 10° S 18:53:28 42° W 18:58:35 10° NNW
Cosmos 2279 Rocket 3.9 18:48:11 10° S 18:54:24 84° W 19:00:40 10° N
Sich 1 4.2 18:50:44 10° NNW 18:54:47 42° W 18:58:50 10° SSW
Cosmos 2360 4.5 18:49:05 10° NNW 18:54:47 67° WSW 19:00:26 10° SSE
Cosmos 1814 Rocket 4.3 18:50:31 10° S 18:54:34 52° SSE 18:54:34 52° SSE
ARGOS 4.0 18:52:08 10° S 18:57:22 49° W 19:02:39 10° NNW
H-2A R/B 4.0 18:53:53 10° SSW 18:58:22 28° W 19:02:47 10° NW
Meteor 1-14 Rocket 4.3 18:52:49 10° NNW 18:58:38 84° W 19:04:32 10° S
NOSS 2-2 (D) 4.3 18:57:41 10° NNW 19:02:49 71° NE 19:02:49 71° NE
NOSS 2-2 (E) 4.4 18:58:57 10° NW 19:04:30 86° NE 19:05:40 64° SE
COSMOS 2455 2.8 19:02:22 10° SW 19:08:22 78° WNW 19:09:04 68° N
Okean O Rocket 3.8 19:12:34 10° SSW 19:16:15 25° W 19:19:59 10° NW
ATLAS CENTAUR R/B 3.6 19:09:06 10° WSW 19:16:27 36° NW 19:16:49 35° NNW
CZ-2C R/B 4.4 19:15:27 10° N 19:19:49 28° WNW 19:24:08 10° WSW
CZ-4C R/B 3.0 19:28:43 10° NW 19:35:02 68° N 19:35:02 68° N
BREEZE-M DEB (TANK) 4.3 19:09:24 10° SW 19:36:31 78° SE 19:37:07 74° ESE
Cosmos 1980 Rocket 3.6 19:48:42 10° NW 19:52:30 34° WNW 19:52:30 34° WNW
Cosmos 2082 Rocket 3.9 19:56:33 10° WSW 20:00:28 30° WNW 20:00:28 30° WNW
